Regional Weather Roundup
Issued by NWS Cleveland, OH

Home | Current Version | Previous Version | Text Only | Print | Product List | Glossary Off
Versions: 1 2 3 4 5 6 7 8 9 10 11 12 13 14 15 16 17 18 19 20 21 22 23 24 25 26 27 28 29 30 31 32 33 34 35 36 37 38 39 40 41 42 43 44 45 46 47 48 49 50

000
ASUS41 KCLE 061702
RWRCLE
OHIO REGIONAL WEATHER ROUNDUP
NATIONAL WEATHER SERVICE CLEVELAND, OH
1200 PM EST FRI MAR 06 2015

NOTE: "FAIR" INDICATES FEW OR NO CLOUDS BELOW 12,000 FEET WITH NO
SIGNIFICANT WEATHER AND/OR OBSTRUCTIONS TO VISIBILITY.

OHZ001>008-015>018-024>027-034-035-043-044-061800-
   NORTHWEST OHIO

CITY           SKY/WX    TMP DP  RH WIND       PRES   REMARKS
DEFIANCE       SUNNY     16   4  59 SW15G22   30.48F WCI   1
FINDLAY        MOSUNNY   19   8  62 SW17      30.48F WCI   4
TOLEDO EXPRESS MOSUNNY   16   4  59 SW13G24   30.47F WCI   2
TOLEDO EXEC    MOSUNNY   17   4  56 SW17      30.49F WCI   1
LIMA           MOSUNNY   19   7  59 S14       30.46F WCI   6
$$

OHZ009>014-019>023-028>033-038-089-061800-
   NORTHEAST OHIO

CITY           SKY/WX    TMP DP  RH WIND       PRES   REMARKS
CLE-HOPKINS    PTSUNNY   20   7  57 SW16      30.51F WCI   6
CLE-LAKEFRONT  MOSUNNY   21   7  54 S18       30.49F WCI   6
CUY CO. ARPT   PTSUNNY   23   9  54 SW14      30.48F WCI  11
LORAIN-ELYRIA  MOSUNNY   19   8  62 SW18      30.49F WCI   4
ASHTABULA      SUNNY     18   3  52 S13       30.47F WCI   5
AKRON-CANTON   MOSUNNY   18   4  54 SW10      30.47F WCI   6
WOOSTER        MIX PCPN  18   6  59 SW14      30.49S WCI   4
MANSFIELD      SUNNY     18   8  65 S14       30.45F WCI   4
YOUNGSTOWN     PTSUNNY   17   3  54 SW13      30.47S WCI   4
$$

OHZ042-051>053-060>062-070>072-077>081-061800-
  SOUTHWEST OHIO

CITY           SKY/WX    TMP DP  RH WIND       PRES   REMARKS
CINC-COVINGTON MOSUNNY   20   7  57 S8        30.54S WCI  10
CINC-LUNKEN    SUNNY     20   7  57 S9        30.58F WCI   9
HAMILTON       SUNNY     25   8  48 VRB3      30.55F
DAYTON         PTSUNNY   21   9  59 SW12      30.50F WCI   9
WRIGHT-PAT AFB NOT AVBL
DAYTON GENERAL MOSUNNY   20   7  57 S12       30.51S WCI   8
WILMINGTON     SUNNY     18   4  54 S9        30.51F WCI   7
$$

OHZ036-037-039>041-045>050-054>059-063>069-073>076-082>088-061800-
  CENTRAL AND SOUTHEAST OHIO

CITY           SKY/WX    TMP DP  RH WIND       PRES   REMARKS
COLUMBUS       PTSUNNY   18   6  59 SW10      30.53F WCI   6
OSU AIRPORT    SUNNY     20   6  55 SW12      30.50F WCI   8
BOLTON FIELD   SUNNY     19   9  63 S9        30.52F WCI   9
RICKENBACK AFB NOT AVBL
NEWARK         SUNNY     18   5  57 S10       30.52F WCI   6
MARION         SUNNY     18   8  65 SW15      30.48F WCI   4
LANCASTER      SUNNY     18   5  57 SW10      30.54F WCI   6
ZANESVILLE     SUNNY     18   3  52 S6        30.52F WCI  10
NEW PHILLY     SUNNY     20   4  50 W6        30.52F WCI  12
$$



USA.gov is the U.S. government's official web portal to all federal, state and local government web resources and services.